Regional Weather Roundup
Issued by NWS

Home | Current Version | Previous Version | Graphics & Text | Print | Product List | Glossary On
Versions: 1 2 3 4 5 6 7 8 9 10 11 12 13 14 15 16 17 18 19 20 21 22 23 24 25 26 27 28 29 30 31 32 33 34 35 36 37 38 39 40 41 42 43 44 45 46 47 48 49 50
000
ASUS43 KDTX 302010
RWRMI
MICHIGAN HOURLY REGIONAL WEATHER ROUNDUP
NATIONAL WEATHER SERVICE DETROIT/PONTIAC MI
400 PM EDT WED JUL 30 2014

NOTE: "FAIR" INDICATES FEW OR NO CLOUDS BELOW 12,000 FEET WITH NO
SIGNIFICANT WEATHER AND/OR OBSTRUCTION TO VISIBILITY.

MIZ047>049-052>055-059>063-066>070-074>076-081>083-302100-
SOUTHEAST LOWER MICHIGAN

CITY           SKY/WX    TMP DP  RH WIND       PRES   REMARKS
ADRIAN         LGT RAIN  73  60  63 N6        29.99F
ALMA           MOSUNNY   73  49  43 NW7       29.98F
ANN ARBOR      MOSUNNY   76  54  46 NW7       29.98F
BAD AXE        MOSUNNY   71  51  49 NW3       29.98F
CARO           SUNNY     74  50  42 W6        29.97F
DETROIT CITY   PTSUNNY   73  58  59 NE3       29.98S
DETROIT        MOSUNNY   76  55  48 SW9       29.97F
FLINT          CLOUDY    72  55  55 W7        29.98F
GROSSE ILE     MOSUNNY   75  55  50 W5        29.96F
HILLSDALE      MOSUNNY   76  56  50 W8G18     29.99F
HOWELL         PTSUNNY   71  56  59 SW3       29.98F

CITY           SKY/WX    TMP DP  RH WIND       PRES   REMARKS
JACKSON        MOSUNNY   73  57  57 VRB6      29.99F
LAMBERTVILLE   CLOUDY    73  55  53 CALM      29.98F
LANSING        LGT RAIN  62  56  80 E6        30.00R
LAPEER         FAIR      72  49  43 NW7       29.98F
MASON          MOSUNNY   73  56  56 W5        29.98F
MONROE         MOSUNNY   75  57  53 NW8       29.97S
MT. CLEMENS    PTSUNNY   72  56  57 VRB5      29.96F
PONTIAC        PTSUNNY   72  55  55 W9        29.98F
PORT HOPE        N/A     64  55  72 NE5       29.98F
PORT HURON     SUNNY     70  57  64 W3        29.97F
TRI CITIES     MOSUNNY   75  50  41 W7        29.98F
TROY           CLOUDY    72  55  55 W3        29.99S
SAGINAW HB     MOSUNNY   73  46  38 CALM      29.97F
$$
MIZ043>046-050>051-056>058-064>065-071>073-077>080-302100-
SOUTHWEST LOWER MICHIGAN

CITY           SKY/WX    TMP DP  RH WIND       PRES   REMARKS
BATTLE CREEK   PTSUNNY   76  57  51 W13       30.00F
BENTON HARBOR  MOSUNNY   65  57  75 VRB7      30.04F
BIG RAPIDS     PTSUNNY   74  46  36 W9G18     29.99S
COLDWATER      MOSUNNY   77  58  50 W10G16    30.00S
FREMONT        FAIR      75  42  30 NW9G16    29.99F
HOLLAND        PTSUNNY   65  59  81 W10       30.04S
GRAND RAPIDS   LGT RAIN  69  60  73 W7        30.00S
IONIA          FAIR      72  57  58 W5        29.99S
KALAMAZOO      MOSUNNY   76  56  49 W12       30.01S
LUDINGTON      SUNNY     69  56  63 N9G16     30.03F
MARSHALL       HVY RAIN  67  60  76 NW6       29.99S
MOUNT PLEASANT MOSUNNY   74  47  37 NW7       29.98S
MUSKEGON       MOSUNNY   71  49  45 NW14      30.02S
SOUTH HAVEN    CLOUDY    64  61  87 NW8       30.04S FOG
$$
MIZ016>042-302100-
NORTHERN LOWER MICHIGAN

CITY           SKY/WX    TMP DP  RH WIND       PRES   REMARKS
ALPENA         MOSUNNY   72  52  49 N7        29.96F
BEAVER ISLAND  PTSUNNY   65  54  67 W9        30.00S
BELLAIRE       MOSUNNY   71  48  44 W7        29.98S
CADILLAC       PTSUNNY   69  51  54 NW10G16   29.99F
CHARLEVOIX     PTSUNNY   66  54  64 W8        30.03S
FRANKFORT      SUNNY     66  53  61 W9        30.02S
GAYLORD        MOSUNNY   67  47  48 VRB5      29.98F
GRAYLING       MOSUNNY   74  49  40 NW8       29.98F
HARBOR SPRINGS PTSUNNY   65  53  65 SW9G16    29.99S
HOUGHTON LAKE  MOSUNNY   72  49  44 W10       29.98F
MANISTEE       SUNNY     64  52  63 NW9       30.02F
OSCODA         PTSUNNY   63  56  78 E10G16    29.98S
PELLSTON       PTSUNNY   69  46  43 W9        29.98S
ROGERS CITY    SUNNY     65  53  64 N9        29.98F
TRAVERSE CITY  MOSUNNY   70  53  54 NE8       29.98F
$$
MIZ007>008-015-302100-
EASTERN UPPER MICHIGAN

CITY           SKY/WX    TMP DP  RH WIND       PRES   REMARKS
KINROSS        CLOUDY    64  52  63 NW10      29.98R
MACKINAC ISLAN PTSUNNY   64  53  67 SW6G16    29.98S
NEWBERRY       CLOUDY    60  53  77 CALM      29.99S
S. S. MARIE    PTSUNNY   61  49  64 NW10      29.98R
MUNISING         N/A     65  53  65 NE6       29.97F
$$
MIZ004>006-011>014-085-302100-
CENTRAL UPPER MICHIGAN

CITY           SKY/WX    TMP DP  RH WIND       PRES   REMARKS
MANISTIQUE     PTSUNNY   66  55  67 SW13G18   29.98F
ESCANABA       PTSUNNY   66  52  59 S13       29.99F
MENOMINEE      MOSUNNY   70  54  56 S7        29.99F
SAWYER-GWINN   CLOUDY    68  46  45 W8G16     29.98S
$$
MIZ001>003-009>011-084-302100-
WESTERN UPPER MICHIGAN

CITY           SKY/WX    TMP DP  RH WIND       PRES   REMARKS
IRON MOUNTAIN  MOSUNNY   73  43  33 VRB3      29.98F
HOUGHTON       HVY RAIN  59  54  83 W14       29.97R
COPPER HARBOR    N/A     60  54  80 VRB7      29.95F
$$

ABBREVIATIONS USED IN REMARKS
   TC - TEMPERATURE IN CELSIUS
  WCI - WIND CHILL INDEX
   HX - HEAT INDEX
  VSB - VISIBILITY



USA.gov is the U.S. government's official web portal to all federal, state and local government web resources and services.